Terminal Aerodrome Forecast
Issued by NWS Newport/Morehead City, NC

Home | Current Version | Previous Version | Graphics & Text | Print | Product List | Glossary On
Versions: 1 2 3 4 5 6 7 8 9 10 11 12 13 14 15 16 17 18 19 20 21 22 23 24
000
FTUS42 KMHX 281125 AAD
TAFEWN
TAF AMD
KEWN 281125Z 2811/2912 VRB04KT P6SM FEW250
     FM281500 07005KT P6SM BKN200
     FM281800 08009KT P6SM VCSH BKN050
     FM282100 09007KT P6SM OVC050
     FM290000 09005KT P6SM -SHRA OVC035
     FM290600 VRB03KT P6SM -SHRA OVC030
     FM290900 VRB03KT P6SM -SHRA OVC020=

USA.gov is the U.S. government's official web portal to all federal, state and local government web resources and services.